[[{"header":{"parameterUnit":"m.s-1","parameterCategory":1,"la1":30.2991,"la2":30.254,"lo1":-89.0895,"lo2":-89.0444,"dy":0.0017,"dx":0.0017,"nx":28,"ny":28,"refTime":"2025-02-03T09:00:00:Z","depth":0,"parameterNumber":2,"parameterNumberName":"U-component_of_WINDS"},"data":[0,0,0,0,0,0,0,0,0,0,0,0,0,0,0,0,0,0,0,0,0,0,0,0,0,0,0,0,0,0,0,0,0,0,0,0,0,0,0,0,0,0,0,0,0,0,0,0,0,0,0,0,0,0,0,0,0,0,0.2063,0.2064,0,0.2135,0.2136,0.2136,0.2177,0.2177,0.2177,0.2177,0.2251,0.2253,0.2254,0,0,0,0,0,0,0,0,0,0,0,0,0,0.1962,0.1963,0.2063,0.2064,0.2065,0.2135,0.2136,0.2137,0.2177,0.2177,0.2177,0.2177,0.225,0.2252,0.2255,0,0,0,0,0,0,0,0,0,0,0,0,0,0.2017,0.1964,0.2063,0.2094,0.2097,0.2134,0.2136,0.2137,0.2177,0.2177,0.2177,0.2177,0.2249,0.2252,0.2255,0.2267,0,0,0.2263,0.2264,0,0,0,0,0,0,0,0,0.2014,0.202,0.2088,0.2092,0.2096,0.2147,0.2127,0.2181,0.2177,0.2147,0.2177,0.2178,0.2216,0.2222,0.2235,0.2271,0.2274,0.2263,0.2265,0.2266,0.2267,0,0,0,0,0,0,0,0.201,0.2018,0.2092,0.2089,0.2094,0.2104,0.2112,0.2137,0.2179,0.2149,0.2152,0.216,0.2218,0.2232,0.2237,0.2275,0.2263,0.2266,0.2267,0.2269,0.2324,0.2324,0,0,0,0,0,0,0.2001,0.2014,0.2089,0.2094,0.2054,0.2105,0.2114,0.213,0.2179,0.2187,0.216,0.2162,0.2227,0.2233,0.2239,0.2257,0.2266,0.2269,0.227,0.2325,0.2324,0.2324,0,0,0,0,0,0,0.1999,0.2007,0.2086,0.2055,0.2066,0.2107,0.2125,0.2132,0.2145,0.2187,0.2195,0.2166,0.2227,0.2235,0.226,0.226,0.227,0.2273,0.2325,0.2325,0.2324,0.2292,0,0,0,0,0,0,0.1996,0.2006,0.2012,0.2055,0.2067,0.2106,0.2125,0.2133,0.215,0.2153,0.2195,0.2202,0.2228,0.2256,0.2263,0.2264,0.2275,0.2325,0.2325,0.2324,0.2293,0.229,0.2288,0,0,0,0,0,0.1992,0.2,0.2012,0.2021,0.2075,0.2106,0.2113,0.2142,0.215,0.2155,0.2182,0.2201,0.2259,0.2258,0.2266,0.2268,0.2325,0.2325,0.2324,0.2294,0.2291,0.2288,0,0,0,0,0,0,0.1956,0.2006,0.202,0.2042,0.2069,0.2113,0.2121,0.2138,0.2164,0.2166,0.2202,0.2211,0.2232,0.2253,0.2251,0.2282,0.2294,0.2295,0.2268,0.2265,0.2263,0.2257,0.2277,0,0,0,0,0,0.1951,0.1972,0.2014,0.203,0.2043,0.2079,0.2094,0.2114,0.2144,0.2156,0.2184,0.2213,0.2237,0.2252,0.2277,0.2296,0.2306,0.2302,0.2299,0.2297,0.2297,0.2308,0.2307,0.2323,0.2323,0.2323,0,0,0.194,0.197,0.1981,0.2023,0.2047,0.2068,0.2089,0.211,0.2126,0.2159,0.2184,0.2205,0.2239,0.2261,0.2272,0.2279,0.2295,0.2296,0.2294,0.2296,0.2308,0.2306,0.2304,0.2323,0.2323,0.2323,0,0,0.1931,0.1956,0.1971,0.1994,0.2029,0.2053,0.2057,0.2097,0.2113,0.2138,0.2163,0.2182,0.2224,0.2247,0.2264,0.2262,0.228,0.2269,0.2257,0.2267,0.2265,0.2264,0.2263,0.2262,0.227,0.227,0.227,0,0.1913,0.1945,0.1977,0.1996,0.2014,0.2045,0.206,0.2081,0.2122,0.2134,0.2141,0.2193,0.2218,0.2245,0.2244,0.2257,0.2262,0.2265,0.2263,0.2262,0.2262,0.2261,0.226,0.2268,0.2268,0.2269,0.2269,0,0.1921,0.1943,0.1951,0.199,0.2009,0.2026,0.206,0.2075,0.2093,0.2116,0.2141,0.2172,0.2203,0.2211,0.223,0.224,0.2243,0.2256,0.2269,0.2258,0.2258,0.2258,0.2266,0.2267,0.2267,0.2267,0,0,0.1892,0.1947,0.195,0.1967,0.2008,0.2025,0.2044,0.2074,0.2086,0.2113,0.2129,0.2163,0.2175,0.2195,0.2216,0.2225,0.222,0.2237,0.2238,0.2232,0.2233,0.2222,0.2221,0.2233,0.2233,0.2233,0.223,0,0.1888,0.1923,0.1951,0.1975,0.1995,0.2024,0.204,0.2067,0.2089,0.2109,0.2133,0.2156,0.2171,0.2183,0.2193,0.2219,0.2221,0.2219,0.2247,0.2248,0.2237,0.2221,0.2211,0.2206,0.223,0.223,0.223,0,0.1889,0.1914,0.194,0.1978,0.1987,0.2001,0.2031,0.205,0.208,0.2096,0.2116,0.2138,0.2159,0.2169,0.2197,0.2196,0.2209,0.2223,0.2224,0.2227,0.2238,0.2224,0.2206,0.2204,0.223,0.223,0.223,0,0.1864,0.1905,0.1925,0.194,0.1984,0.1993,0.2012,0.2043,0.2059,0.2085,0.2095,0.2123,0.2138,0.2159,0.2188,0.2193,0.2213,0.2226,0.2226,0.2225,0.2228,0.2228,0.2211,0.2238,0.2238,0.2238,0.2238,0,0.1856,0.1871,0.1915,0.1927,0.1944,0.1976,0.1992,0.2013,0.204,0.2057,0.2084,0.2099,0.2137,0.2156,0.2179,0.2199,0.2206,0.2218,0.2224,0.2215,0.2213,0.2224,0.2225,0.2238,0.2238,0.2238,0.2238,0,0.1831,0.1861,0.1885,0.1925,0.1936,0.1946,0.1981,0.1994,0.2017,0.2038,0.2044,0.2081,0.2105,0.2136,0.2171,0.2186,0.2202,0.2212,0.2192,0.2195,0.2193,0.2192,0.2182,0.2182,0.2209,0.2209,0.2208,0,0.1824,0.1836,0.1877,0.189,0.1908,0.1929,0.1945,0.1977,0.1993,0.2028,0.2037,0.2063,0.2086,0.2124,0.2153,0.2179,0.2189,0.2184,0.2193,0.2184,0.2188,0.2186,0.2187,0.2181,0.2181,0.218,0.218,0,0.1808,0.1822,0.1845,0.1872,0.189,0.1914,0.1938,0.1947,0.1984,0.2,0.2025,0.2043,0.2078,0.2103,0.2133,0.2153,0.2172,0.2177,0.2178,0.2169,0.2157,0.2162,0.2185,0.2177,0.2177,0.2177,0.2177,0.2178,0.1792,0.1803,0.1833,0.1857,0.1879,0.19,0.1914,0.1939,0.196,0.1991,0.2008,0.2032,0.2062,0.2104,0.2123,0.2142,0.2149,0.2151,0.2151,0.2151,0.2148,0.2154,0.2148,0.2148,0.2148,0.2148,0.2148,0,0.1777,0.1797,0.1819,0.1852,0.187,0.1886,0.1914,0.1928,0.1949,0.1975,0.1996,0.2025,0.2049,0.208,0.2107,0.2117,0.2126,0.2122,0.2122,0.2126,0.2141,0.2136,0.2114,0.2114,0.2114,0.2114,0.2114,0.2114,0.1771,0.179,0.1808,0.1838,0.1859,0.1883,0.1897,0.1917,0.1937,0.1967,0.1988,0.2008,0.2036,0.2064,0.2088,0.2096,0.2104,0.2098,0.2109,0.2122,0.2125,0.2128,0.2124,0.21,0.21,0.2092,0.2092,0.2092]},{"header":{"parameterUnit":"m.s-1","parameterCategory":1,"la1":30.2991,"la2":30.254,"lo1":-89.0895,"lo2":-89.0444,"dy":0.0017,"dx":0.0017,"nx":28,"ny":28,"refTime":"2025-02-03T09:00:00:Z","depth":0,"parameterNumber":3,"parameterNumberName":"V-component_of_WINDS"},"data":[0,0,0,0,0,0,0,0,0,0,0,0,0,0,0,0,0,0,0,0,0,0,0,0,0,0,0,0,0,0,0,0,0,0,0,0,0,0,0,0,0,0,0,0,0,0,0,0,0,0,0,0,0,0,0,0,0,0,1.2502,1.2502,0,1.2451,1.245,1.245,1.2423,1.2423,1.2423,1.2423,1.2368,1.2367,1.2365,0,0,0,0,0,0,0,0,0,0,0,0,0,1.2575,1.2574,1.2502,1.2501,1.2501,1.2451,1.245,1.245,1.2423,1.2423,1.2423,1.2422,1.2368,1.2367,1.2365,0,0,0,0,0,0,0,0,0,0,0,0,0,1.2535,1.2573,1.2502,1.2481,1.2479,1.2451,1.245,1.245,1.2423,1.2423,1.2423,1.2422,1.2369,1.2367,1.2365,1.2353,0,0,1.2358,1.2357,0,0,0,0,0,0,0,0,1.2538,1.2533,1.2485,1.2483,1.248,1.2443,1.2456,1.2417,1.2423,1.2444,1.2423,1.2422,1.2393,1.2389,1.2379,1.2351,1.2348,1.2358,1.2357,1.2356,1.2355,0,0,0,0,0,0,0,1.254,1.2535,1.2482,1.2484,1.2481,1.2474,1.2468,1.2448,1.2419,1.2442,1.244,1.2435,1.2391,1.2381,1.2378,1.2347,1.2358,1.2356,1.2355,1.2354,1.2308,1.2308,0,0,0,0,0,0,1.2547,1.2537,1.2483,1.248,1.2509,1.2473,1.2467,1.2455,1.242,1.2414,1.2435,1.2433,1.2385,1.238,1.2376,1.236,1.2356,1.2354,1.2353,1.2308,1.2308,1.2308,0,0,0,0,0,0,1.2548,1.2542,1.2485,1.2508,1.25,1.2472,1.2459,1.2454,1.2444,1.2414,1.2408,1.243,1.2385,1.2379,1.2359,1.2358,1.2353,1.2351,1.2308,1.2308,1.2308,1.233,0,0,0,0,0,0,1.2551,1.2543,1.2538,1.2508,1.2499,1.247,1.2459,1.2453,1.2441,1.2439,1.2408,1.2403,1.2384,1.2363,1.2357,1.2355,1.2349,1.2308,1.2308,1.2308,1.2329,1.233,1.2332,0,0,0,0,0,1.2553,1.2546,1.2538,1.2532,1.2493,1.247,1.2465,1.2445,1.2441,1.2436,1.2417,1.2404,1.2359,1.2361,1.2355,1.2352,1.2308,1.2308,1.2308,1.2328,1.233,1.2332,0,0,0,0,0,0,1.2575,1.2541,1.2533,1.2515,1.2496,1.2466,1.2459,1.2447,1.2428,1.2427,1.2402,1.2395,1.2378,1.2363,1.2365,1.2339,1.2332,1.2331,1.235,1.2351,1.2353,1.2357,1.2348,0,0,0,0,0,1.2578,1.2563,1.2534,1.2522,1.2513,1.2488,1.2477,1.2463,1.2442,1.2433,1.2412,1.2392,1.2373,1.2361,1.2342,1.2327,1.232,1.2322,1.2323,1.2324,1.2324,1.2315,1.2316,1.2308,1.2308,1.2308,0,0,1.2584,1.2564,1.2555,1.2526,1.2509,1.2494,1.2481,1.2465,1.2453,1.243,1.2411,1.2396,1.2371,1.2353,1.2345,1.234,1.2324,1.2324,1.2326,1.2324,1.2315,1.2316,1.2317,1.2308,1.2308,1.2308,0,0,1.2587,1.257,1.2558,1.2542,1.2518,1.2501,1.2499,1.247,1.2459,1.244,1.2423,1.2409,1.2377,1.236,1.2348,1.2346,1.2334,1.2341,1.2348,1.234,1.234,1.2341,1.2341,1.2341,1.234,1.234,1.234,0,1.2597,1.2573,1.2553,1.2539,1.2526,1.2506,1.2494,1.248,1.245,1.2442,1.2437,1.2398,1.238,1.2359,1.2359,1.2349,1.2345,1.2344,1.2342,1.2342,1.2342,1.2342,1.2342,1.2341,1.2341,1.2341,1.2341,0,1.2587,1.2572,1.2565,1.2538,1.2525,1.2512,1.2489,1.2478,1.2466,1.245,1.2431,1.2409,1.2386,1.238,1.2367,1.2357,1.2355,1.2347,1.2339,1.2344,1.2344,1.2343,1.2342,1.2342,1.2342,1.2342,0,0,1.2601,1.2565,1.2563,1.2551,1.2523,1.251,1.2497,1.2475,1.2466,1.2447,1.2435,1.2409,1.2402,1.2387,1.2373,1.2366,1.2367,1.2358,1.2357,1.2361,1.2355,1.2362,1.2362,1.2358,1.2358,1.2358,1.2358,0,1.26,1.2575,1.2557,1.2539,1.2524,1.2506,1.2494,1.2476,1.2461,1.2446,1.2429,1.2412,1.2403,1.2394,1.2387,1.2368,1.2365,1.2368,1.2347,1.2346,1.2354,1.2362,1.2368,1.2369,1.2357,1.2357,1.2357,0,1.2595,1.2578,1.2559,1.2534,1.2527,1.2517,1.2496,1.2482,1.2461,1.2451,1.2436,1.2422,1.2406,1.24,1.2379,1.2381,1.2371,1.2361,1.2361,1.2358,1.2352,1.236,1.2368,1.2369,1.2356,1.2356,1.2356,0,1.2608,1.258,1.2565,1.2555,1.2526,1.2519,1.2506,1.2485,1.2474,1.2456,1.2448,1.2428,1.2418,1.2402,1.2383,1.238,1.2364,1.2356,1.2355,1.2355,1.2352,1.2352,1.236,1.2345,1.2345,1.2345,1.2345,0,1.2609,1.2598,1.2571,1.2561,1.2549,1.2528,1.2516,1.2502,1.2484,1.2471,1.2454,1.2443,1.2417,1.2403,1.2387,1.2373,1.2367,1.2359,1.2355,1.236,1.2362,1.2354,1.2353,1.2345,1.2345,1.2345,1.2345,0,1.2621,1.2602,1.2585,1.2559,1.2552,1.2544,1.2522,1.2512,1.2497,1.2482,1.2477,1.2453,1.2435,1.2414,1.2389,1.2379,1.2366,1.236,1.2373,1.2371,1.2371,1.2372,1.2374,1.2373,1.2359,1.2359,1.236,0,1.2622,1.2614,1.2588,1.2579,1.2567,1.2552,1.2541,1.2521,1.251,1.2487,1.248,1.2461,1.2445,1.2418,1.2398,1.2379,1.2373,1.2375,1.237,1.2376,1.2373,1.2374,1.2374,1.2376,1.2376,1.2377,1.2377,0,1.2628,1.2619,1.2604,1.2587,1.2574,1.2559,1.2543,1.2536,1.2513,1.2501,1.2484,1.2472,1.2447,1.2429,1.2408,1.2394,1.2382,1.2379,1.2378,1.2383,1.2392,1.2388,1.2377,1.2379,1.2378,1.2378,1.2378,1.2378,1.2634,1.2627,1.2608,1.2592,1.2578,1.2564,1.2554,1.2538,1.2524,1.2503,1.2492,1.2475,1.2455,1.2426,1.2413,1.2399,1.2394,1.2393,1.2392,1.2392,1.2394,1.2394,1.2395,1.2395,1.2395,1.2395,1.2395,0,1.2639,1.2627,1.2612,1.2591,1.2579,1.257,1.2552,1.2542,1.2528,1.2511,1.2496,1.2476,1.2459,1.2438,1.242,1.2413,1.2406,1.2408,1.2409,1.2406,1.2399,1.2402,1.2414,1.2414,1.2414,1.2414,1.2414,1.2414,1.264,1.2627,1.2616,1.2596,1.2583,1.2567,1.2558,1.2545,1.2531,1.2511,1.2497,1.2484,1.2465,1.2446,1.2429,1.2424,1.2418,1.2422,1.2414,1.2408,1.2406,1.2405,1.2408,1.2421,1.2421,1.2423,1.2423,1.2423]}]]